Location: Colonia Mina de C?rbuni
(46.1667°N, 22.7167°E)
Time: 17:17:44
(UTC+00:00)

COSMOS 2428 - Pass Details

Date: 04 February 2023
Orbit: 843 x 858 km, 70.9° (Epoch: 30 March)

Event Time Altitude Azimuth Distance (km) Brightness Sun altitude
Rises 16:32:53 0° 149° (SSE) 3,390 5.7 -9.9°
Reaches altitude 10° 16:36:39 10° 124° (SE) 2,460 4.7 -10.5°
Maximum altitude 16:39:14 13° 97° (E) 2,227 4.3 -10.9°
Enters shadow 16:39:37 13° 92° (E) 2,233 4.3 -11.0°
